Timeline UpdatesTrip UpdatesNews PostsPvt PostsTravel TipsAdmin PostsConv PostsFollowed PostsChat RequestsBlog PostsPNR Posts

Disclaimer
Search
 
 
Tue Sep 2, 2014 02:28:44 ISTHomeTrainsΣChainsAtlasPNRForumGalleryNewsFAQTripsMembersLoginFeedback
No Recent News for this Train
Other Trains in the News **new
Latest...
.
Mon Aug 26, 2013 (09:43AM)
⇐ Return Journey: Train# 11027

11028/Chennai-Mumbai CST Mail

Time-Table HAS CHANGED.
Yesterday (7:59PM)
Change Departure Station:
Change Arrival Station:
Post a Train Travel TipPost a Train Travel Tip **new
Post a Comment/Question/Picture/VideoPost a Comment/Question/Picture/Video
Pantry/Catering
✓ Pantry Car Avbl
✓ Catering Avbl
RSA - Rake Sharing
11041 Mumbai Chennai Express
Rake/Coach Composition
Loco >SLR >UR >RMS>A1 >B1 >S10 To > S6 >PC >S5 To >S1>UR >LDS >S11 (S11 From Solapur To Daund Junction )
Loco
MAS-GTL=> LGD WAP-4 GTL-PUNE=> GY WDM-3A PUNE-CSTM=> KYN WCAM #2P/3
News    PNR    Forum    Time-Table    Availability    Fare Chart    Map    Arr/Dep History    Trips    Gallery    ΣChains    X/O    Timeline    
Travel Time: 28h 55m    50 halts    Distance: 1279 km    Avg Speed: 44 km/hr
Type: Mail/Express
Zone: CR/Central
Departs @ 22:50
Platform# 1
SMTWTFS
Chennai Central/MAS 
Arrives @ 03:45 +2 nights
Platform# 16
SMTWTFS
Mumbai CST/CSTM 

50 halts. 224 intermediate Stations between Chennai Central and Mumbai CST

Show ALL intermediate Stations  Show Old Time-Table

#CodeStation NameX/OArrivesAvgDepartsAvgHaltPFDay#KmSpeedElevZoneAddress
1MAS»Chennai Central (12)»  -22:50-110.0649mSRChennai 600003, Tamil Nadu
2TRLTiruvallur (6)  23:29-23:30-1m--141.74950mSRTiruvallur, Tamil Nadu
3AJJArakkonam Junction (8)  00:01 00:03-00:05-4 2m--268.74591mSRArakkonam, Tamil Nadu
4TRTTiruttani (3)  00:24-00:25-1m3283.06384mSRTiruttani, Tamil Nadu
5PUTPuttur (3)O  00:54-00:55-1m12113.322149mSRPuttur, Andhra Pradesh
6RURenigunta Junction (5)X  02:00-02:20 02:05-20 5m12136.763113mSCRChittoor District, Andhra Pradesh
7KOUKoduru (2)  02:59 02:44-03:00 02:45-1m22177.669215mSCRKadapa (YSR District), Andhra Pradesh
8RJPRazampeta (2)  03:29 03:14-03:30 03:15-1m22211.245144mSCRKadapa (YSR District), Andhra Pradesh
9NRENandalur  03:44 03:29-03:45 03:30-1m--2221.746143mSCRRayalaseema Region, Andhra Pradesh
10HXKadapa (3)X  04:34 04:23-04:35 04:25-1 2m32262.275146mSCRCuddapah, Andhra Pradesh
11KKMKamalapuram (2)  04:54 04:44-04:55 04:45-1m--2285.949141mSCRKadapa (YSR District), Andhra Pradesh
12YAYerraguntla (2)  05:09 05:04-05:10 05:05-1m--2301.370171mSCRKadapa / Cuddapah (YSR District), Andhra Pradesh
13MOOMuddanuru (3)  05:24 05:19-05:25 05:20-1m--2317.632194mSCRKadapa (YSR District), Andhra Pradesh
14KDPKondapuram (2)  06:04-06:05-1m--2341.265214mSCRKadapa (YSR District), Andhra Pradesh
15TUTadipatri (3)06:31-06:32-1m12369.267243mSCRAnantapuram Dist, Andhra Pradesh
16RLORayala Cheruvu (2)X  06:54-06:55-1m12393.722292mSCRRayalacheruvu, Andhra Pradesh
17GYGooty Junction (2)  07:59-08:00-1m22417.357370mSCRNH 7 Anantapur District, Andhra Pradesh
18GTLGuntakal Junction (6)08:30-08:50-20m52445.975453mSCRGuntakal. Tel: 08552-227131/32, Andhra Pradesh
19NRRNagarur (2)  09:39 09:24-09:40 09:25-1m22488.463427mSCRKurnool, Andhra Pradesh
20ADAdoni (4)X  09:59 09:34-10:00 09:35-1m42497.962420mSCRAdoni Tel: 08512-252368, Andhra Pradesh
21KGLKupgal (2)  10:14 09:49-10:15 09:50-1m12512.391417mSCRKurnool Dist., Andhra Pradesh
22KOKosigi (2)X  10:24 09:59-10:25 10:00-1m22526.024379mSCRKurnool Dist., Andhra Pradesh
23MALMMantralayam Road (3)  10:59 10:33-11:00 10:35-1 2m12539.175335mSCRKurnool Tel: 08512-259830, Andhra Pradesh
24MTUMatmari  11:14 10:44-11:15 10:45-1m12550.357371mSCRRaichur, Karnataka
25RCRaichur Junction (3)  11:54 11:03-11:55 11:05-1 2m22567.563406mSCRRaichur, Karnataka
26KSNKrishna (2)  12:19 11:29-12:20 11:30-1m22592.764352mSCRDist Mahabubnagar, Telangana
27SADPSaidapur (3)  12:37 11:49-12:38 11:50-1m22613.042377mSCRYadgir Dist., Karnataka
28YGYadgir (3)  12:56 12:23-12:57 12:25-1 2m22636.180369mSCRYadgir, Karnataka
29NWNalwar (2)  13:31 12:44-13:32 12:45-1m12661.56406mSCRGulbarga, Karnataka
30WADIWadi Junction (4)  14:55-15:00-5m32675.250431mCRWadi, Karnataka
31SDBShahabad (3)  15:12-15:13-1m12685.355403mCRShahabad, Karnataka
32GRGulbarga (4)  15:44 15:42-15:45-1 3m12712.061458mCRGulbarga 585101, Karnataka
33GURGanagapur Road16:11-16:12-1m12738.451445mCRDist Gulbarga, Karnataka
34DUDDudhani (2)  16:44 16:39-16:45 16:40-1m12761.449457mCRSolapur, Maharashtra
35AKORAkalkot Road (2)  17:14-17:15-1m12789.364456mCRDist Solapur, Maharashtra
36HGHotgi Junction (3)  17:41 17:34-17:42 17:35-1m22809.626473mCRHotgi 413215, Maharashtra
37SURSolapur (5)18:10-18:20-10m32824.669461mCRSolapur 413001, Maharashtra
38MOMohol (2)XO  18:49-18:50-1m12857.972458mCRSolapur, Maharashtra
39MAMadha (2)XO  19:15-19:16-1m12887.750481mCRSolapur, Maharashtra
40KWVKurduvadi Junction (4)O  19:36 19:35-19:37-1 2m22903.660516mCRKurduvadi Dist-Solapur, Maharashtra
41KEMKem (2)  19:55-19:56-1m12921.754548mCRKem, Maharashtra
42JEURJeur (1)  20:14-20:15-1m12937.856526mCRJeur, Maharashtra
43BGVNBhigwan (2)X  21:04-21:05-1m12983.837509mCRDaund, Maharashtra
44DDDaund Junction (7)21:50-21:55-5m621011.550521mCRNew Daund Dist. Pune 413801, Maharashtra
45PUNEPune Junction (6)23:25-23:40-15m321087.140556mCRPune 411001, Maharashtra
46KKKhadki (3)  23:49-23:50-1m221093.164562mCRPune 411003, Maharashtra
47LNLLonavala (3)  00:44-00:45-1m231150.736623mCRLonavala 410401, Maharashtra
48KJTKarjat Junction (4)  01:34 01:33-01:35-1 2m231179.45657mCRKarjat, Maharashtra
49KYNKalyan Junction (8)  02:29 02:25-02:30-1 5m731226.29310mCRKalyan 421301, Maharashtra
50TNAThane (10)  02:44 02:43-02:45-1 2m631246.45810mCRThane (West) 400602, Maharashtra
51DRMumbai Dadar Central (8)  03:14 03:10-03:15-1 5m631270.7177mCRMumbai 400014, Maharashtra
52CSTM•Mumbai CST (18)•  03:45--1631279.3-10mCRMumbai 400001, Maharashtra
Scroll to Top
Scroll to Bottom